Date,TemperatureHighF,TemperatureAvgF,TemperatureLowF,DewpointHighF,DewpointAvgF,DewpointLowF,HumidityHigh,HumidityAvg,HumidityLow,PressureMaxIn,PressureMinIn,WindSpeedMaxMPH,WindSpeedAvgMPH,GustSpeedMaxMPH,PrecipitationSumIn
2013-2-12,97.9,89.2,79.0,83.8,80.8,78.7,99,78,55,29.81,29.75,8,3,8,0.01
2013-2-13,96.8,88.3,77.2,82.0,79.4,75.8,99,77,56,29.80,29.71,7,4,7,0.07
2013-2-14,93.9,84.7,77.0,82.7,79.3,76.2,99,85,60,29.73,29.61,16,6,16,0.26
2013-2-15,82.8,79.5,73.6,82.5,78.8,73.3,99,98,91,29.68,29.55,13,7,13,0.44
2013-2-16,83.5,81.1,78.1,82.8,80.7,77.8,99,99,95,29.51,29.16,21,11,21,1.07
2013-2-17,91.0,84.3,80.6,86.3,83.1,80.3,99,96,84,29.64,29.33,14,6,14,0.20
2013-2-18,94.3,76.7,65.3,86.5,72.0,56.2,99,86,61,29.92,29.62,11,4,11,0.00
2013-2-19,82.8,73.8,64.9,76.2,70.5,61.4,99,90,72,29.90,29.79,7,3,9,0.00
2013-2-20,81.3,73.2,67.5,76.0,71.4,67.2,99,95,76,29.84,29.71,8,3,10,0.00
2013-2-21,85.3,76.3,70.2,78.1,73.4,69.9,99,91,70,29.79,29.71,10,4,10,0.00
2013-2-22,84.7,78.0,73.4,80.6,76.7,73.2,99,96,85,29.80,29.71,8,4,11,0.00
2013-2-23,86.7,79.6,74.8,81.9,78.0,74.6,99,95,84,29.76,29.65,6,2,8,0.00
2013-2-24,87.1,79.4,72.7,83.6,76.9,72.4,99,93,72,29.73,29.62,5,1,7,0.00
2013-2-25,87.8,80.3,75.4,83.1,77.9,75.1,99,93,73,29.64,29.51,6,2,7,0.00
2013-2-26,86.4,80.0,76.3,84.2,79.2,76.0,99,97,86,29.66,29.52,7,2,8,0.05
2013-2-27,81.9,75.0,71.1,81.5,74.7,70.8,99,99,93,29.70,29.61,7,2,8,0.66
2013-2-28,71.6,70.8,70.3,71.3,70.6,70.1,99,99,99,29.69,29.66,2,1,4,0.01
2013-3-21,81.0,71.9,65.5,72.1,66.7,62.3,99,85,58,29.68,29.58,8,2,8,0.00
2013-3-22,88.7,77.0,66.9,79.2,73.6,65.5,99,90,68,29.69,29.61,7,2,7,0.00
2013-3-23,90.1,80.2,73.4,81.9,76.3,72.7,99,89,57,29.69,29.54,8,2,8,0.00
2013-3-24,88.5,80.7,75.0,83.2,78.4,74.7,99,93,78,29.60,29.45,4,1,4,0.00
2013-3-25,80.8,73.9,65.1,77.4,69.6,55.1,99,87,61,29.76,29.49,6,2,6,0.73
2013-3-26,72.1,66.2,60.4,62.6,54.1,49.1,83,66,51,29.97,29.75,8,4,8,0.00
2013-3-27,70.9,63.8,57.0,54.1,47.2,39.7,85,57,36,30.03,29.91,11,3,11,0.00
2013-3-28,77.9,67.5,60.3,61.1,52.1,45.7,85,60,33,30.00,29.90,11,4,11,0.00
2013-3-29,81.7,71.2,63.9,61.4,58.0,53.4,87,65,40,30.02,29.91,9,4,14,0.00
2013-3-30,81.9,73.3,66.7,66.7,62.6,57.4,98,72,44,29.97,29.84,13,5,14,0.00
2013-3-31,87.8,76.5,69.3,73.7,67.8,62.2,99,76,51,29.90,29.74,9,4,13,0.00
2013-4-1,91.0,79.5,71.2,81.0,75.1,71.0,99,88,60,29.79,29.69,4,2,9,0.00
2013-4-2,89.8,78.2,69.3,76.3,71.9,67.4,99,84,48,29.82,29.73,6,1,7,0.00
2013-4-3,88.2,78.7,70.9,78.4,75.0,70.6,99,89,69,29.79,29.66,8,4,11,0.00
2013-4-4,89.8,80.4,75.2,81.8,77.3,75.0,99,91,72,29.75,29.69,9,3,11,0.00
2013-4-5,78.3,71.1,65.8,78.0,70.8,65.6,99,99,99,29.73,29.55,11,3,11,1.24
2013-4-6,81.7,71.2,64.9,68.5,64.3,60.9,99,81,50,29.82,29.70,10,3,12,0.01
2013-4-7,86.2,76.6,68.0,73.5,70.5,67.7,99,83,57,29.82,29.72,12,4,13,0.00
2013-4-8,86.9,79.1,73.6,75.1,73.1,71.1,99,83,63,29.82,29.74,11,5,13,0.00
2013-4-9,88.2,80.0,73.8,77.2,74.8,72.3,99,85,66,29.84,29.74,12,5,12,0.00
2013-4-10,88.3,80.9,75.2,80.5,78.0,75.0,99,91,74,29.80,29.66,11,6,13,0.00
2013-4-11,90.0,82.5,77.5,81.5,79.4,77.3,99,91,72,29.72,29.58,11,5,14,0.00
2013-4-12,91.9,83.5,76.6,82.2,79.3,76.4,99,88,63,29.69,29.59,7,2,9,0.00
2013-4-13,96.8,84.5,77.9,83.3,78.8,71.2,99,85,45,29.70,29.60,6,2,6,0.00
2013-4-14,92.3,84.1,78.3,81.1,78.9,76.8,99,86,63,29.69,29.59,10,4,12,0.00
2013-4-15,97.7,86.4,77.4,84.4,78.9,65.7,99,81,36,29.77,29.64,4,2,8,0.00
2013-4-16,92.5,84.9,79.7,81.9,79.5,75.4,99,85,63,29.81,29.72,8,4,14,0.00
2013-4-17,92.3,84.3,78.8,79.2,76.7,73.8,98,80,57,29.81,29.70,9,5,12,0.00
2013-4-18,93.2,83.9,78.6,79.6,77.3,75.0,99,82,57,29.75,29.66,12,6,13,0.00
2013-4-19,92.5,84.5,79.0,80.7,78.2,76.6,99,83,61,29.76,29.67,11,5,11,0.00
2013-4-20,97.2,85.3,77.5,84.8,79.4,74.9,99,84,49,29.81,29.68,5,2,8,0.00
2013-4-21,92.5,82.6,73.6,79.7,75.9,72.0,99,82,54,29.80,29.70,12,3,12,0.06
2013-4-22,94.1,81.6,73.6,79.6,76.3,72.8,99,86,51,29.78,29.65,6,2,7,0.08
2013-4-23,93.7,83.0,75.9,77.4,73.6,66.5,99,76,43,29.78,29.67,10,5,13,0.00
2013-4-24,91.2,82.8,74.8,72.4,70.0,67.6,88,67,49,29.84,29.74,11,5,13,0.00
2013-4-25,91.2,82.3,74.8,70.1,66.0,55.4,82,60,32,29.92,29.80,9,4,12,0.00
2013-4-26,89.1,80.9,73.2,68.8,66.6,62.6,84,64,43,29.93,29.84,10,5,12,0.00
2013-4-27,88.3,80.3,73.8,73.6,67.5,61.9,88,67,42,29.91,29.76,13,6,14,0.00
2013-4-28,90.1,81.4,75.7,76.8,72.4,69.4,99,76,52,29.80,29.67,11,5,17,0.00
2013-4-29,89.2,80.7,74.8,80.0,75.9,72.2,99,86,64,29.73,29.63,11,4,11,0.18
2013-4-30,94.8,84.6,76.8,79.1,77.4,73.2,99,81,50,29.71,29.62,6,3,9,0.00
2013-5-1,88.3,80.1,74.1,81.1,77.8,73.9,99,93,68,29.72,29.60,8,2,10,0.18
2013-5-2,83.5,74.8,68.4,79.8,74.1,68.1,99,98,85,29.66,29.52,11,3,20,5.49
2013-5-3,90.9,78.3,68.2,84.0,74.8,67.9,99,90,61,29.57,29.44,8,2,12,0.05
2013-5-4,89.2,80.2,73.4,76.3,72.9,62.9,99,80,60,29.60,29.46,8,3,9,0.00
2013-5-5,85.5,76.9,70.9,67.4,63.2,59.0,82,64,43,29.71,29.55,6,3,8,0.00
2013-5-6,91.6,78.8,69.3,68.2,64.9,59.9,90,65,36,29.78,29.68,6,2,8,0.00
2013-5-7,91.4,79.9,69.6,75.5,69.7,65.8,99,74,43,29.82,29.71,4,1,4,0.00
2013-5-8,91.2,79.8,67.5,74.8,70.3,67.2,99,76,49,29.87,29.79,10,2,10,0.00
2013-5-9,93.0,82.8,75.2,80.2,74.6,70.7,99,78,52,29.87,29.77,10,3,11,0.00
2013-5-10,93.6,84.8,76.3,82.0,78.9,76.0,99,84,62,29.84,29.73,6,3,9,0.00
2013-5-11,93.7,85.2,78.6,82.6,79.2,76.3,99,84,58,29.79,29.73,9,3,10,0.00
2013-5-12,94.3,85.6,78.4,80.0,77.0,71.2,99,78,50,29.79,29.70,8,3,8,0.00
2013-5-13,93.6,83.5,75.4,83.1,77.4,73.8,99,83,54,29.84,29.73,6,2,6,0.00
2013-5-14,89.4,80.8,77.0,77.7,72.3,66.4,95,76,59,29.87,29.77,12,5,12,0.00
2013-5-15,89.4,81.1,74.8,72.0,68.0,65.3,83,65,49,29.88,29.79,14,5,14,0.00
2013-5-16,77.7,77.0,76.5,71.1,70.3,69.6,83,80,77,29.80,29.74,7,5,12,0.00
2013-5-17,94.8,83.4,75.7,79.8,76.3,71.8,99,81,55,29.80,29.73,7,3,7,0.00
2013-5-18,92.7,85.2,78.1,80.3,78.5,75.0,99,82,61,29.82,29.74,8,3,8,0.00
2013-5-19,92.3,84.5,78.3,78.4,76.5,74.4,97,78,58,29.81,29.70,8,4,8,0.00
2013-5-20,93.2,83.9,78.3,79.9,77.0,73.9,98,81,60,29.77,29.69,10,4,10,0.00
2013-5-21,93.6,86.1,73.2,81.7,78.5,72.9,99,80,58,29.73,29.62,8,3,9,0.11
2013-5-22,95.9,86.5,79.0,82.1,79.7,77.0,99,82,57,29.69,29.61,4,2,7,0.00
2013-5-23,96.1,86.1,77.7,82.4,79.1,77.1,99,82,57,29.75,29.66,4,1,6,0.00
2013-5-24,95.7,85.4,75.4,79.1,76.6,72.6,99,78,49,29.81,29.70,5,2,6,0.00
2013-5-25,95.5,85.5,77.0,82.6,76.2,68.1,99,76,44,29.85,29.75,11,4,13,0.00
2013-5-26,93.9,84.7,78.4,73.7,70.0,57.9,82,63,31,29.87,29.79,11,5,14,0.00
2013-5-27,91.0,83.2,77.7,79.1,76.0,69.3,99,80,57,29.83,29.73,11,5,16,0.08
2013-5-28,86.0,77.9,74.3,81.6,77.3,74.1,99,98,80,29.79,29.71,8,4,15,1.69
2013-5-29,88.3,77.2,72.9,82.5,76.6,72.6,99,98,78,29.78,29.68,8,2,9,2.50
2013-5-30,92.7,82.8,75.2,88.1,79.7,75.0,99,91,67,29.74,29.67,7,2,8,0.05
2013-5-31,93.4,84.2,77.9,83.1,79.7,76.9,99,88,67,29.75,29.69,8,3,8,0.00
2013-6-1,94.6,87.0,78.6,84.6,80.6,76.6,99,82,58,29.75,29.66,8,3,8,0.00
2013-6-2,89.4,79.6,74.7,82.1,78.3,74.4,99,96,76,29.73,29.65,7,2,9,0.43
2013-6-3,83.8,78.7,71.6,83.6,78.4,71.3,99,99,99,29.75,29.63,6,1,8,0.45
2013-6-4,84.7,79.1,71.6,84.5,78.8,71.3,99,99,99,29.73,29.66,11,3,13,0.13
2013-6-5,84.0,81.2,76.6,83.8,80.9,76.4,99,99,99,29.71,29.56,8,4,14,0.45
2013-6-6,92.3,80.6,73.4,87.8,79.8,73.2,99,97,85,29.61,29.50,10,2,17,1.31
2013-6-7,92.7,81.3,75.6,88.9,80.1,75.3,99,96,76,29.73,29.58,5,1,7,0.17
2013-6-8,94.1,85.9,77.9,88.5,83.3,77.3,99,92,76,29.80,29.69,8,3,10,0.00
2013-6-9,93.7,86.3,80.4,83.7,81.6,79.8,99,87,64,29.81,29.71,17,5,17,0.00
2013-6-10,94.1,86.9,81.1,84.7,82.1,80.2,99,87,69,29.79,29.70,11,4,11,0.00
2013-6-11,97.5,87.4,76.8,86.7,82.2,76.6,99,86,61,29.79,29.71,8,2,13,0.25
2013-6-12,89.2,80.5,76.6,88.9,79.9,76.4,99,98,84,29.80,29.73,8,1,10,1.31
2013-6-13,95.0,84.6,75.0,85.0,79.8,74.8,99,87,63,29.79,29.68,6,1,7,0.00
2013-6-14,95.4,85.7,76.5,84.9,80.2,76.2,99,85,61,29.72,29.65,5,1,7,0.00
2013-6-15,80.2,79.5,78.4,80.0,79.3,78.2,99,99,99,29.72,29.68,1,0,2,0.00
2013-6-20,96.1,88.5,82.9,82.3,80.0,78.3,94,77,57,29.81,29.73,7,4,7,0.00
2013-6-21,95.7,88.4,82.2,80.4,77.8,75.0,89,72,53,29.83,29.74,8,4,8,0.00
2013-6-22,95.2,87.4,80.4,81.6,77.9,75.3,92,75,53,29.81,29.75,7,3,7,0.02
2013-6-23,94.6,86.7,76.3,84.8,79.7,76.0,99,81,63,29.82,29.74,9,4,9,0.33
2013-6-24,94.5,86.4,77.2,81.8,78.6,74.3,99,79,56,29.87,29.77,14,4,14,0.04
2013-6-25,95.9,87.6,81.5,82.7,80.2,77.1,99,80,58,29.83,29.73,8,4,8,0.00
2013-6-26,91.8,84.0,76.5,84.7,81.2,76.2,99,92,68,29.80,29.72,10,3,10,0.70
2013-6-27,95.4,85.9,80.2,85.8,81.3,76.0,99,87,58,29.76,29.69,7,2,8,0.09
2013-6-28,97.5,88.6,79.0,85.8,80.3,77.1,99,78,54,29.72,29.60,7,2,8,0.00
2013-6-29,97.0,87.8,78.4,89.1,81.0,78.2,99,82,56,29.66,29.59,4,2,5,0.08
2013-6-30,94.6,86.8,81.5,82.4,80.9,78.5,99,84,61,29.68,29.59,6,3,8,0.00
2013-7-1,86.4,81.5,75.4,83.4,79.2,75.1,99,93,82,29.75,29.62,8,2,8,0.32
2013-7-2,93.7,84.3,81.0,84.8,82.0,78.4,99,93,68,29.77,29.68,5,2,9,0.14
2013-7-3,91.6,82.5,73.9,84.0,80.1,73.7,99,93,74,29.82,29.75,10,3,10,0.14
2013-7-4,92.5,85.2,79.7,83.6,81.9,78.2,99,90,73,29.82,29.75,10,4,19,0.04
2013-8-3,99.0,89.1,81.0,84.0,80.8,78.4,99,78,55,29.85,29.76,3,0,3,0.00
2013-8-4,96.8,87.8,79.7,84.9,80.2,74.1,99,80,60,29.84,29.75,2,0,2,0.00
2013-8-5,98.1,87.2,77.9,85.4,79.7,77.6,99,80,55,29.80,29.71,1,0,1,0.00
2013-8-6,90.5,84.4,80.4,86.2,82.0,80.1,99,93,76,29.73,29.64,3,0,3,0.27
2013-8-7,96.8,87.2,78.8,83.3,80.5,78.5,99,82,61,29.68,29.62,6,1,6,0.00
2013-8-8,93.9,86.8,77.9,83.6,79.9,77.6,99,81,63,29.69,29.61,10,4,10,0.21
2013-8-9,94.3,84.1,73.6,83.1,78.6,73.3,99,85,55,29.75,29.64,11,3,17,0.47
2013-8-10,90.0,84.5,77.0,85.5,81.3,76.8,99,91,76,29.80,29.71,11,4,15,0.19
2013-8-11,94.6,88.0,82.0,83.9,81.9,79.8,99,83,65,29.83,29.74,12,5,14,0.02
2013-8-12,94.1,87.1,82.0,82.7,80.2,77.0,98,81,59,29.81,29.71,10,4,11,0.00
2013-8-13,96.6,88.2,82.2,82.5,80.1,78.1,96,78,57,29.75,29.67,8,3,11,0.00
2013-8-14,84.0,83.3,82.9,79.5,78.8,78.2,87,86,84,29.74,29.69,5,2,6,0.00
2013-8-15,92.8,84.6,75.4,84.1,81.3,75.1,99,90,72,29.77,29.67,7,2,7,0.30
2013-8-16,93.9,86.8,81.1,85.5,83.7,80.8,99,91,76,29.75,29.68,8,3,8,0.00
2013-8-17,95.7,88.1,83.7,84.2,81.6,79.9,97,82,62,29.77,29.69,8,4,8,0.00
2013-8-18,94.8,88.0,83.3,83.0,81.3,78.6,94,81,64,29.77,29.68,9,4,9,0.00
2013-8-19,95.4,87.0,81.3,83.3,81.4,78.4,99,85,60,29.76,29.67,8,4,8,0.07
2013-8-20,85.8,79.3,73.8,84.2,78.8,73.5,99,98,84,29.78,29.67,5,2,5,2.07
2013-8-21,93.4,85.0,78.4,87.3,81.9,78.2,99,91,72,29.77,29.67,9,3,14,0.14
2013-8-22,94.1,85.9,79.0,87.0,82.8,78.7,99,91,73,29.75,29.64,11,5,12,0.15
2013-8-23,96.1,88.2,82.8,83.2,81.7,79.5,97,82,63,29.73,29.64,8,4,9,0.00
2013-8-24,97.2,88.0,80.2,83.0,81.3,79.4,99,82,60,29.80,29.68,7,3,9,0.00
2013-8-25,97.2,87.6,82.9,84.1,80.9,74.2,99,81,55,29.84,29.74,8,3,9,0.00
2013-8-26,89.8,82.7,77.7,83.1,79.9,75.7,99,92,65,29.82,29.71,6,2,8,0.17
2013-8-27,80.2,80.2,80.2,79.1,79.1,79.1,96,96,96,29.75,29.75,0,0,2,0.00
2013-12-29,96.4,89.1,83.3,81.1,78.6,75.7,93,73,53,29.91,29.82,8,3,8,0.00
2013-12-30,98.6,89.6,79.2,84.1,80.1,77.8,99,76,53,29.96,29.82,4,0,4,0.00
2013-12-31,99.0,89.1,81.0,84.0,80.8,78.4,99,78,55,30.01,29.92,3,0,3,0.00
2014-1-1,96.8,87.8,79.7,84.9,80.2,74.1,99,80,60,30.00,29.91,2,0,2,0.00
2014-1-2,98.1,87.2,77.9,85.4,79.7,77.6,99,80,55,29.96,29.88,1,0,1,0.00